Location: Shenandoah County Park
(38.9356°N, 78.4524°W)
Time: 11:32:00
(UTC-05:00)

Courier 1B - All Passes

Search period start: 11 December 2023 00:00
Search period end: 21 December 2023 00:00
Orbit: 962 x 1208 km, 28.3° (Epoch: 10 December)

Date Brightness Start Highest point End Pass type
(mag) Time Alt. Az. Time Alt. Az. Time Alt. Az.
11 Dec - 06:01:27 10° SSW 06:06:44 21° SSE 06:11:51 10° ESE visible
11 Dec - 07:53:48 10° SW 08:00:08 33° S 08:06:08 10° ESE daylight
11 Dec - 09:47:31 10° WSW 09:53:33 32° S 09:59:20 10° SE daylight
11 Dec - 11:42:20 10° WSW 11:46:43 18° SSW 11:51:00 10° SSE daylight
12 Dec - 05:08:22 10° SSW 05:13:03 17° SSE 05:17:36 10° ESE visible
12 Dec - 07:00:05 10° SW 07:06:25 31° S 07:12:27 10° ESE daylight
12 Dec - 08:53:34 10° WSW 08:59:54 34° S 09:05:53 10° ESE daylight
12 Dec - 10:48:01 10° WSW 10:53:09 23° SSW 10:58:07 10° SSE daylight
13 Dec - 04:15:45 10° S 04:19:22 14° SSE 04:22:54 10° SE visible
13 Dec - 06:06:27 10° SW 06:12:41 28° SSE 06:18:39 10° ESE visible
13 Dec - 07:59:39 10° WSW 08:06:11 35° S 08:12:22 10° ESE daylight
13 Dec - 09:53:50 10° WSW 09:59:33 27° SSW 10:05:01 10° SE daylight
13 Dec - 11:50:23 10° SW 11:52:34 12° SSW 11:54:43 10° S daylight
14 Dec - 03:24:36 10° SSE 03:25:40 10° SSE 03:26:45 10° SE visible
14 Dec - 05:12:57 10° SW 05:18:57 25° SSE 05:24:43 10° ESE visible
14 Dec - 07:05:47 10° WSW 07:12:27 35° S 07:18:45 10° ESE daylight
14 Dec - 08:59:44 10° WSW 09:05:54 31° SSW 09:11:46 10° SE daylight
14 Dec - 10:55:07 10° WSW 10:59:03 16° SSW 11:02:51 10° S daylight
15 Dec - 04:19:40 10° SSW 04:25:12 21° SSE 04:30:36 10° ESE visible
15 Dec - 06:11:58 10° SW 06:18:40 34° S 06:25:04 10° ESE visible
15 Dec - 08:05:42 10° WSW 08:12:12 34° S 08:18:22 10° SE daylight
15 Dec - 10:00:31 10° WSW 10:05:28 20° SSW 10:10:15 10° SSE daylight
16 Dec - 03:26:39 10° SSW 03:31:28 18° SSE 03:36:12 10° ESE visible
16 Dec - 05:18:15 10° SW 05:24:53 32° S 05:31:16 10° ESE visible
16 Dec - 07:11:43 10° WSW 07:18:27 36° S 07:24:52 10° ESE daylight
16 Dec - 09:06:10 10° WSW 09:11:51 25° SSW 09:17:17 10° SE daylight
17 Dec - 02:34:10 10° S 02:37:45 14° SSE 02:41:19 10° SE visible
17 Dec - 04:24:38 10° SW 04:31:06 29° SSE 04:37:22 10° ESE visible
17 Dec - 06:17:46 10° WSW 06:24:41 37° S 06:31:16 10° ESE visible
17 Dec - 08:11:57 10° WSW 08:18:11 29° SSW 08:24:07 10° SE daylight
17 Dec - 10:08:02 10° SW 10:11:17 14° SSW 10:14:28 10° S daylight
18 Dec - 03:31:12 10° SSW 03:37:19 25° SSE 03:43:19 10° ESE visible
18 Dec - 05:23:54 10° WSW 05:30:52 36° S 05:37:34 10° ESE visible
18 Dec - 07:17:50 10° WSW 07:24:27 33° S 07:30:46 10° SE daylight
18 Dec - 09:13:03 10° WSW 09:17:42 18° SSW 09:22:12 10° SSE daylight
19 Dec - 02:38:00 10° SSW 02:43:33 21° SSE 02:49:03 10° ESE visible
19 Dec - 04:30:08 10° SW 04:37:02 35° S 04:43:46 10° ESE visible
19 Dec - 06:23:47 10° WSW 06:30:41 36° S 06:37:17 10° ESE visible
19 Dec - 08:18:30 10° WSW 08:24:04 23° SSW 08:29:24 10° SSE daylight
20 Dec - 01:45:09 10° SSW 01:49:49 17° SSE 01:54:29 10° ESE night (unlit)
20 Dec - 03:36:28 10° SW 03:43:13 32° SSE 03:49:52 10° ESE visible
20 Dec - 05:29:49 10° WSW 05:36:51 37° S 05:43:40 10° ESE visible
20 Dec - 07:24:11 10° WSW 07:30:23 27° SSW 07:36:19 10° SE daylight
20 Dec - 09:21:26 10° SW 09:23:28 11° SSW 09:25:29 10° SSW daylight
